Terminal Aerodrome Forecast
Issued by NWS

Home | Current Version | Previous Version | Text Only | Print | Product List | Glossary On
Versions: 1 2 3 4 5 6 7 8 9 10 11 12 13 14 15 16 17 18 19 20 21 22 23 24 25 26 27 28 29 30 31 32 33 34 35 36 37 38 39 40 41 42 43 44 45 46 47 48 49 50
000
FTUS44 KHGX 201505 AAA
TAFIAH
TAF AMD
KIAH 201505Z 2015/2118 01007KT P6SM OVC007
     FM201700 02008KT P6SM BKN015 OVC025
     FM202100 03005KT P6SM SCT025
     FM210200 05004KT P6SM FEW030
     FM211000 VRB03KT P6SM FEW035 SCT080 SCT250=

USA.gov is the U.S. government's official web portal to all federal, state and local government web resources and services.